Simultaneous Nadir Overpasses (SNOs) Predictions

Prediction of SNOs between GOES-17 and TERRA Satellite Orbit:

Table of predicted SNOs for the next 14.0 days since TLE Epoch: 1/6/2024
Index Date Time (GOES-17) GOES-17 Lat,Lon TERRA Lat,Lon Distance(km) Time Diff (sec)
1 01/06/2024 17:07:43 0.00,-104.67 0.71,-108.11 390.53 80
2 01/08/2024 16:53:32 -0.01,-104.67 -0.15,-104.05 71.00 80
3 01/09/2024 05:13:44 0.01,-104.66 -0.91,-108.95 488.11 80
4 01/11/2024 04:56:53 0.00,-104.65 -0.03,-104.89 26.84 80
5 01/13/2024 04:37:21 -0.01,-104.64 0.80,-100.82 434.73 80
6 01/13/2024 16:57:24 0.01,-104.65 0.21,-105.69 118.68 80
7 01/15/2024 16:43:11 0.02,-104.64 -0.59,-101.61 343.67 80
8 01/16/2024 05:03:24 -0.02,-104.64 -0.41,-106.53 214.98 80
9 01/18/2024 04:43:52 -0.02,-104.63 0.46,-102.46 247.36 80
10 01/18/2024 17:03:54 0.02,-104.63 0.59,-107.33 306.41 80
